Powrót do katalogu

LKW-2

AktywnyMilitariaSSO
NORAD 43080·PAYLOAD·🇨🇳 China

Wystrzelony Dec 23, 2017 z Jiuquan Satellite Launch Center

Loading…

Następne Przeloty (najbliższe 24 godziny)

TLE

ŚwieżeSource: Space-Track

Epoka: Sep 14, 2026, 14:47 UTC

1 43080U 17084A   26257.61610034  .00004143  00000-0  15730-3 0  9999
2 43080  97.1120 293.2606 0000516 355.0898   5.0336 15.27350308485339

Śledź LKW-2 w czasie rzeczywistym z AllMySat

Download on the App Store